Regional Weather Roundup
Issued by NWS

Home | Current Version | Previous Version | Text Only | Print | Product List | Glossary Off
Versions: 1 2 3 4 5 6 7 8 9 10 11 12 13 14 15 16 17 18 19 20 21 22 23 24 25 26 27 28 29 30 31 32 33 34 35 36 37 38 39 40 41 42 43 44 45 46 47 48 49 50

000
ASUS45 KBOU 221110
RWRCO

WEATHER ROUNDUP FOR COLORADO
NATIONAL WEATHER SERVICE DENVER/BOULDER CO
400 AM MST MON JAN 22 2018

NOTE: "FAIR" INDICATES FEW OR NO CLOUDS BELOW 12000 FEET WITH NO
SIGNIFICANT WEATHER AND/OR OBSTRUCTIONS TO VISIBILITY.

COZ001>005-013-030-031-221200-
...NORTHWEST COLORADO...

CITY           SKY/WX    TMP DP  RH WIND       PRES   REMARKS
CRAIG          FAIR      -1  -6  79 CALM      30.21R
HAYDEN         FLURRIES N/A N/A N/A SE3       30.20R
MEEKER         FAIR      -2  -7  79 NE3       30.20S
RABBIT EARS PA SNOW       3   0  85 W14G23    29.96R VSB 1/2 WCI -15
STEAMBOAT SPGS CLOUDY    13  10  90 CALM      30.16S VSB 3/4
WALDEN         FAIR       0  -6  78 SE6       30.06R WCI -12
$$

COZ006>008-011-221200-
...WEST CENTRAL VALLEYS...

CITY           SKY/WX    TMP DP  RH WIND       PRES   REMARKS
GRAND JUNCTION FAIR      12  10  92 E8        30.25R WCI   0
MONTROSE       FAIR      13   9  84 SE7       30.27R WCI   3
EAGLE          FAIR       3   0  87 E7        30.21R WCI  -9
RIFLE          CLOUDY    18  11  74 CALM      30.26R
DELTA          FAIR      17  11  78 NE5       30.26S WCI  10
NUCLA          FAIR      12   5  73 E5        30.26R WCI   4
$$

COZ017>023-064>068-221200-
...SOUTHWEST COLORADO...

CITY           SKY/WX    TMP DP  RH WIND       PRES   REMARKS
DURANGO        FAIR       7   5  91 E7        30.10R WCI  -5
CORTEZ         FAIR       4   1  88 NE9       30.19R WCI -10
PAGOSA SPRINGS FAIR     N/A N/A N/A CALM      30.09R
TELLURIDE      FLURRIES   8   4  80 CALM      30.14R
WOLF CREEK PAS FAIR       3  -9  55 NW16G26   29.98R HAZE    WCI -16
$$

COZ009-010-012-014-032>034-037-058>063-221200-
...CENTRAL COLORADO...

CITY           SKY/WX    TMP DP  RH WIND       PRES   REMARKS
ASPEN          MOCLDY     7   2  80 SW3       30.12R
BUENA VISTA    FAIR      14   0  54 NW10G23   30.03R WCI   1
COPPER MTN     NOT AVBL
BERTHOUD PASS  SNOW      -6 -17  59 NW28G37   29.84F VSB 1/4 WCI -33
COTTONWOOD PAS   N/A     14   1  57 W12G24    29.96R WCI   0
GUNNISON       FAIR       5  -1  76 NE3       30.13R
KREMMLING      CLOUDY    10   5  79 E3        30.14R
LEADVILLE      FAIR       1  -3  83 NW10      29.99R WCI -15
MONARCH PASS   CLOUDY    -2  -6  84 SW16      30.01R WCI -23
SALIDA         FAIR      11   2  68 W7        30.11R WCI   0
SUNLIGHT       LGT SNOW N/A N/A N/A MISG      30.07R VSB 3/4
WILKERSON PASS FAIR       3  -6  66 N14G32    29.88R WCI -15
$$

COZ069>075-221200-
...SAN LUIS VALLEY/SANGRE DE CRISTO MOUNTAINS...

CITY           SKY/WX    TMP DP  RH WIND       PRES   REMARKS
ALAMOSA        FAIR       0  -5  79 E5        30.05R WCI -10
DEL NORTE      MOCLDY    15  -2  48 W12       30.05R WCI   1
LA VETA PASS   MOCLDY     5   1  85 S24G36      N/A  WCI -17
SAGUACHE       CLOUDY    16   3  57 NW21      30.05R WCI  -2
$$

COZ035-036-038>040-221200-
...NORTHERN COLORADO FRONT RANGE...

CITY           SKY/WX    TMP DP  RH WIND       PRES   REMARKS
DENVER INTL AP MOCLDY    19  10  68 W5        29.96S WCI  12
DMNS CITY PARK NOT AVBL
AURORA         MOCLDY    18  10  70 W8        29.96R WCI   8
FRONT RANGE AP FAIR      18  11  75 NW7       29.96R WCI   9
ERIE MUNI ARPT FAIR       6   3  88 CALM      30.02S
BOULDER MUN AP FAIR      23  10  58 W6        29.96S WCI  16
CENTENNIAL     FAIR      21   8  57 W10       29.95R WCI  10
BROOMFIELD     FAIR      25   7  46 W16       29.96S WCI  12
FORT COLLINS   FAIR      16   8  71 N5        29.97S WCI   9
LONGMONT       NOT AVBL
$$

COZ041-046-047-076>085-087-088-221200-
...PIKES PEAK/PALMER DIVIDE AND SOUTHERN FOOTHILLS...

CITY           SKY/WX    TMP DP  RH WIND       PRES   REMARKS
COLO. SPRINGS  FAIR      19   7  59 NW12      29.93S WCI   7
A. F. ACADEMY  FAIR      17   3  53 N12       29.91S WCI   5
SCHRIEVER AFB  FAIR      19   7  61 NW13      29.93S WCI   6
CHEYENNE MTN   FAIR      17   7  64 CALM      29.85S
ELLICOTT         N/A    N/A N/A N/A NW5         N/A
FALCON         FAIR      17   4  56 NW13      29.91R WCI   4
FORT CARSON    FAIR      14   5  68 E3        29.92S
LIMON          CLOUDY    22  14  71 N24       29.92R WCI   5
MONUMENT HILL  FAIR       9   3  78 W13       29.93R WCI  -7
CANON CITY     FAIR      28   9  43 W21       29.98S WCI  15
WALSENBURG     FAIR      23  10  58 W22G30    29.98R WCI   8
TRINIDAD       CLOUDY    15  12  88 W9        29.96S WCI   3
$$

COZ042>045-048>051-090-091-221200-
...NORTHEAST COLORADO...

CITY           SKY/WX    TMP DP  RH WIND       PRES   REMARKS
GREELEY ARPT   FAIR      17   9  70 N14       29.98S WCI   3
AKRON          CLOUDY    22  16  78 NW24      29.92R WCI   5
BURLINGTON     FOG       26  24  92 NW29G45   29.84R VSB 1   WCI  10
WRAY             N/A     28  27  93 NW29G38   29.89R WCI  13
YUMA           LGT SNOW  23  21  93 NW23G35   29.91R WCI   7
STERLING       CLOUDY    27  18  69 N22       29.94S WCI  12
HOLYOKE        CLOUDY    30  27  86 NW21G33   29.89S WCI  17
FORT MORGAN    MOCLDY    24  13  61 NW22      29.98R WCI   9
$$

COZ086-089-092>099-221200-
...SOUTHEAST COLORADO...

CITY           SKY/WX    TMP DP  RH WIND       PRES   REMARKS
PUEBLO         FAIR      15  11  83 W8        29.98S WCI   4
LA JUNTA       FAIR      25  15  66 NW13      29.97S WCI  14
LAMAR          FAIR      25  18  74 NW16      29.92R WCI  12
SPRINGFIELD      N/A     24  18  77 NW31G39   29.88R WCI   7
$$



USA.gov is the U.S. government's official web portal to all federal, state and local government web resources and services.